Change the Weather History Date:

Tuesday, May 28, 2013

  Actual Average Record
Temperature  
Mean Temperature 73 °F 76 °F  
Max Temperature 88 °F 88 °F 98 °F (2012)
Min Temperature 58 °F 65 °F 45 °F (1961)
Degree Days  
Heating Degree Days 0 0  
Month to date heating degree days 33 5  
Since 1 July heating degree days 1864 1983  
Cooling Degree Days 8 11  
Month to date cooling degree days 175 239  
Year to date cooling degree days 298 379  
Growing Degree Days 22 (Base 50)    
Moisture  
Dew Point 59 °F    
Average Humidity 62    
Maximum Humidity 100    
Minimum Humidity 24    
Precipitation  
Precipitation 0.00 in 0.16 in 3.75 in (1976)
Month to date precipitation 6.15 4.48  
Year to date precipitation 37.12 26.04  
Sea Level Pressure  
Sea Level Pressure 30.07 in    
Wind  
Wind Speed 5 mph (SSE)    
Max Wind Speed 17 mph    
Max Gust Speed 23 mph    
Visibility 10 miles    
Events      
T = Trace of Precipitation, MM = Missing Value Source: NWS Daily Summary

Daily Weather History Graph

Daily Weather History Graph

Search for Another Location

Airport or City:

Trip Planner

Search our weather history database for the weather conditions in past years. The results will help you decide how hot, cold, wet, or windy it might be!

Date:

Astronomy

May. 28, 2013 Rise Set
Actual Time 5:54 AM CDT 7:54 PM CDT
Civil Twilight 5:27 AM CDT 8:21 PM CDT
Nautical Twilight 4:54 AM CDT 8:55 PM CDT
Astronomical Twilight 4:18 AM CDT 9:30 PM CDT
Moon 11:26 PM CDT (5/28) 9:36 AM CDT (5/28)
Length of Visible Light 14h 54m
Length of Day
13h 59m
Waning Gibbous, 82% of the Moon is Illuminated
May 28
Waning Gibbous
May 31
Last Quarter
Jun 8
New
Jun 16
First Quarter
Jun 23
Full

Hourly Weather History & Observations

Time (CDT) Temp. Heat Index Dew Point Humidity Pressure Visibility Wind Dir Wind Speed Gust Speed Precip Events Conditions
12:53 AM 64.9 °F - 61.0 °F 87% 30.10 in 10.0 mi Calm Calm - N/A   Clear
1:53 AM 63.0 °F - 60.1 °F 90% 30.08 in 10.0 mi Calm Calm - N/A   Clear
2:53 AM 61.0 °F - 59.0 °F 93% 30.06 in 10.0 mi Calm Calm - N/A   Clear
3:53 AM 62.1 °F - 59.0 °F 90% 30.06 in 10.0 mi Calm Calm - N/A   Clear
4:53 AM 61.0 °F - 59.0 °F 93% 30.07 in 10.0 mi Calm Calm - N/A   Clear
5:22 AM 60.8 °F - 57.2 °F 88% 30.08 in 10.0 mi Calm Calm - N/A   Scattered Clouds
5:30 AM 59.0 °F - 57.2 °F 94% 30.08 in 10.0 mi Calm Calm - N/A   Mostly Cloudy
5:38 AM 59.0 °F - 57.2 °F 94% 30.08 in 10.0 mi Calm Calm - N/A   Scattered Clouds
5:48 AM 57.2 °F - 55.4 °F 94% 30.09 in 10.0 mi SE 3.5 mph - N/A   Mostly Cloudy
5:53 AM 57.9 °F - 55.9 °F 93% 30.08 in 10.0 mi SE 3.5 mph - N/A   Mostly Cloudy
6:53 AM 59.0 °F - 59.0 °F 100% 30.08 in 10.0 mi Calm Calm - N/A   Overcast
7:53 AM 63.0 °F - 62.1 °F 97% 30.09 in 10.0 mi Calm Calm - N/A   Mostly Cloudy
8:08 AM 64.4 °F - 62.6 °F 94% 30.09 in 10.0 mi Calm Calm - N/A   Scattered Clouds
8:53 AM 72.0 °F - 64.9 °F 78% 30.09 in 10.0 mi Calm Calm - N/A   Clear
9:53 AM 79.0 °F - 64.0 °F 60% 30.09 in 10.0 mi ESE 11.5 mph - N/A   Clear
10:53 AM 81.0 °F 81.1 °F 57.9 °F 45% 30.09 in 10.0 mi SE 9.2 mph 17.3 mph N/A   Clear
11:53 AM 82.9 °F 81.9 °F 54.0 °F 37% 30.09 in 10.0 mi SSE 13.8 mph 18.4 mph N/A   Clear
12:53 PM 82.9 °F 82.0 °F 55.0 °F 38% 30.08 in 10.0 mi South 5.8 mph - N/A   Clear
1:53 PM 84.9 °F 83.7 °F 55.9 °F 37% 30.06 in 10.0 mi South 9.2 mph - N/A   Clear
2:53 PM 87.1 °F 85.3 °F 55.0 °F 33% 30.05 in 10.0 mi South 10.4 mph 19.6 mph N/A   Clear
3:53 PM 86.0 °F 84.2 °F 54.0 °F 33% 30.03 in 10.0 mi Variable 4.6 mph - N/A   Clear
4:53 PM 87.1 °F - 46.9 °F 25% 30.03 in 10.0 mi SSE 9.2 mph 18.4 mph N/A   Clear
5:53 PM 86.0 °F - 51.1 °F 30% 30.02 in 10.0 mi South 9.2 mph - N/A   Clear
6:53 PM 82.9 °F 82.6 °F 57.9 °F 42% 30.02 in 10.0 mi South 9.2 mph - N/A   Clear
7:53 PM 79.0 °F - 63.0 °F 58% 30.02 in 10.0 mi South 5.8 mph - N/A   Clear
8:53 PM 73.9 °F - 64.0 °F 71% 30.03 in 10.0 mi SE 4.6 mph - N/A   Clear
9:53 PM 73.9 °F - 64.9 °F 73% 30.05 in 10.0 mi SE 4.6 mph - N/A   Clear
10:53 PM 73.9 °F - 68.0 °F 82% 30.06 in 10.0 mi Calm Calm - N/A   Mostly Cloudy
11:53 PM 72.0 °F - 68.0 °F 87% 30.05 in 10.0 mi ESE 3.5 mph - N/A   Clear